Погода Маслянино

Погода Маслянино : погода сейчас, прогноз погоды и архив. Всё, что Вы хотите узнать о погоде Маслянино!

Хотите узнать прогноз погоды Маслянино? Тогда Вам сюда: Погода Маслянино

Поиск расширенной информации на нашем сайте:

Полезная информация: Ремонт - Евроремонт офиса, екатеринбург

Другие новости

Новости СМИ2

Главная страница сайта

Новости сайта

02.10.2013

Напоминаем, что на нашем новом сайте вы можете получить высокодетализированные прогнозы погоды по пунктам России, СНГ и мира (включающие важные для авиации метеовеличины, такие как направление и скорость ветра, видимость, явления погоды, количество и форма облачности, нижняя и верхняя граница облачности), а также ознакомиться с разнообразными материалами по авиационной метеорологии и подборкой полезных ссылок на эту тему.

Сайт Метеоцентр.Азия посвящён разработке технологий оптимизации авиаметеорологического обслуживания, включая проектирование и перспективное создание нескольких автоматизированных авиаметеорологических систем:
- система выпуска высокодетальных прогностических карт явлений погоды для нижнего воздушного пространства по России и ближнему зарубежью;
- система верификации прогнозов TAF (выпускаемых синоптиками официальных АМСГ РФ и ближнего зарубежья) и AUTOTAF (выпускаемых сайтом Метеоцентр.Азия) - выявление ошибок, онлайн-сопоставление с фактической погодой METAR, автоматическое внесение коррективов в прогнозы при резком отклонении фактической погоды от прогноза, подсчёт оправдываемости прогнозов по элементам и в целом;
- система обработки, анализа и отображения авиаметеорологической информации для применения провайдерами метеорологической информации.

Рекомендуем: Экскаватор экг муфта упругая.

Погода Маслянино - сегодня

Время (UTC), дата Ветер
(°,м/с) 
Видим.   Явления Облачность Т
(°С)
Тd
(°С)
f(%) Тe
(°С)
Pmin
(гПа)
dP
(гПа)
Po
(мм)
O2
(г/м3)
Тmin Tmax R s Состояние
почвы
12 16.02.17 140 (ЮВ) 20000 м    10/8 600 м средняя 
[Sc|Ac und]
-11 -18.1 56 -14  1028.5  -1.9  752  317    -9.5       
15 16.02.17 140 (ЮВ) 20000 м    10/6 600 м верхняя 
[Sc|Ci fib]
-14.9 -18 77 -15  1027.3  -1.5  751  321           
18 16.02.17 тихо ()   4000 м  слаб. снег  10/0 средняя 
[As op]
-14.6 -16.5 85 -15  1024.9  -2.3  749  320           
21 16.02.17 тихо ()   20000 м  {снег}  10/0 средняя 
[Ac und]
-15.7 -17.3 87 -16  1023.1  -1.9  747  321           
00 17.02.17 тихо ()   4000 м  слаб. снег  10/0 средняя 
[As op]
-13.5 -15.2 87 -14  1018.6  -4.1  744  317  -16.7    0.4  72  неравномерный
сухой снег
100% 
03 17.02.17 тихо ()   1000 м  снег  10/10 300 м 
[Ns]
-11.4 -12.9 89 -11  1014  -4.3  741  313           
06 17.02.17 тихо ()   1000 м  снег  10/10 300 м 
[Ns]
-7.9 -9.9 86 -8  1009.7  -3.8  738  307           
09 17.02.17 тихо ()   1000 м  снег  10/10 300 м 
[Ns]
-6.2 -7.3 92 -6  1007.1  -2.4  736  304           
12 17.02.17 340 (С) 1000 м  ливневой снег  10/10 300 м кучево-дожд. 
[Cb calv]
-9.3 -10.5 91 -13  1010.3  2.9  739  309    -5.7  10     
15 17.02.17 310 (СЗ) 4000 м  слаб. ливневой снег  10/10 300 м кучево-дожд. 
[Cb calv]
-10.6 -12.2 88 -14  1016.5  5.9  743  313           
18 17.02.17 300 (СЗ) 10 км  {ливн. осадки}  4/0 средняя 
[Ac trans]
-16.2 -17.9 87 -16  1022.8  5.6  747  321           
21 17.02.17 тихо ()   10 км    4/0 верхняя 
[Ci fib]
-21.3 -23.6 82 -21  1026.9  3.5  750  329           
00 18.02.17 тихо ()   10 км    4/0 верхняя 
[Ci fib]
-26.4 -29.4 76 -26  1029.8  2.2  751  337  -26.4    0.5  84  неравномерный
сухой снег
100% 
03 18.02.17 тихо ()   10 км    ясно 
-25.9 -28.8 76 -26  1031.1  1.2  752  337  -28.4         
06 18.02.17 180 (Ю) 10 км    ясно 
-15.4 -17.2 86 -15  1029.6  -0.2  752  323           
09 18.02.17 230 (ЮЗ) 20000 м    ясно 
-11.9 -15.8 73 -14  1028.7  -0.6  752  318           
12 18.02.17 250 (З) 20000 м    ясно 
-18.3 -20.3 84 -19  1028.6  -0.7  751  326    -11.3       
15 18.02.17 300 (СЗ) 20000 м    ясно 
-22.6 -25.2 79 -23  1028.8  -0.3  751  332           
18 18.02.17 тихо ()   20000 м    ясно 
-27.3 -30.4 75 -27  1028.3  -1  750  338           
21 18.02.17 260 (З) 20000 м    ясно 
-29.2 -32.6 72 -30  1028.2  -0.3  750  340           
00 19.02.17 тихо ()   20000 м    ясно 
-30 -33.4 72 -30  1026.9  -1.4  749  341  -30.8      84  неравномерный
сухой снег
100% 
03 19.02.17 190 (Ю) 10 км    10/0 верхняя 
[Ci fib]
-28.7 -32.1 72 -29  1024.5  -2.2  747  338           
06 19.02.17 тихо ()   10 км    10/0 средняя 
[As op]
-20.1 -22.7 80 -20  1020.9  -2.5  745  326           
09 19.02.17 210 (ЮЗ) 10 км    10/0 средняя 
[As op]
-14.3 -17.5 77 -14  1017.8  -2.4  744  318           
12 19.02.17 040 (СВ) 4000 м  слаб. снег  10/0 средняя 
[As op]
-12.6 -14.6 85 -13  1017.3  -0.3  743  315    -12.3  0.0     
Время (UTC), дата Ветер
(°,м/с) 
Видим.   Явления Облачность Т
(°С)
Тd
(°С)
f(%) Тe
(°С)
Pmin
(гПа)
dP
(гПа)
Po
(мм)
O2
(г/м3)
Тmin Tmax R s Состояние
почвы

Для получения пояснительной информации подведите курсор к названию столбца.

ПОГОДА Маслянино - архив

Всё, что Вы хотите узнать о погоде Маслянино - удобно и подробно!

Выберите нужную дату (начиная с 1 января 2015* года) и нажмите кнопку "Найти".
Будут отображены архивные сводки погоды по пункту Маслянино, начиная с указанной даты.


Отображать данные в формате CSV (для использования в таблицах Excel)


Внимание! Наш архив погоды предназначен исключительно для личного некоммерческого использования в познавательных целях. Если Вам необходимы официальные справки о состоянии погоды (для производственных, юридических, коммерческих и т.п. целей), обращайтесь в органы Росгидромета.

*Примечание: данная дата относится к архиву по метеостанциям СССР (Россия, СНГ, Балтия).
Архив по метеостанциям Зарубежной Европы и Азии (кроме Китая) хранится 10 дней, по другим регионам земного шара (Китай, Африка, Америка, Австралия, Океания) - 1 день.

Маслянино - район местоположения метеостанции


Название, широта, долгота, высота метеостанции:
Маслянино 54.3°ш. 84.2°д. 198 м над ур. моря [Российская Федерация]

Дополнительная информация

В oтличие oт бoльшинства пoгoдных сайтoв мы публикуем пoдрoбную метеoинфoрмацию в детальнoм прoфессиoнальнoм фoрмате.

Характеристики температуры и влажнoсти вoздуха измеряются на высoте 2 м в тени вдали oт зданий и деревьев.
Скoрoсть ветра измеряется на высoте 10 м (на урoвне рoста челoвека скoрoсть ветра ниже в 1.5-2 раза). Если метеoстанция нахoдится в гoрoде или в лесу, тo скoрoсть ветра занижена на 2-4 м/с пo сравнению с oткрытым местoм. Скoрoсть ветра над акватoриями крупных рек и oзёр, а также на вершинах хoлмoв на 2-5 м/с выше, чем в oбычных услoвиях.
Атмoсфернoе давление в разных тoчках местнoсти мoжет значительнo oтличаться oт давления на метеoстанции, в зависимoсти oт услoвий рельефа (при пoдъёме на 10 м давление пoнижается примернo на 1 мм рт.ст.).